Temperature
26 23 22 22 22 23 23 23 22 22 22 21 19 18 18 18 18 18 18 18 18 18 18 18 18 18 18 18 18 18 18 17 17 17 17 16 16 16 15 15 15 15 14 14
23 23 24 25 25 24 23 22 22 22 22 21 19 18 18 18 18 18 18 18 18 18 18 18 18 18 18 18 18 17 17 17 17 16 16 16 15 15 15 14 14 14 14 14
24 24 25 26 25 24 23 22 21 21 21 20 19 18 17 17 18 18 19 19 19 19 19 18 18 18 18 18 18 17 17 17 16 16 15 15 15 15 14 14 14 13 13 13
24 25 26 25 25 24 22 23 23 22 19 17 18 17 17 16 17 18 18 19 19 19 19 19 19 18 18 18 18 17 17 16 16 15 15 15 14 14 13 13 13 13 13 13
24 25 25 25 25 25 23 23 22 21 18 17 17 17 17 16 17 17 18 19 19 20 19 19 19 19 19 18 18 17 17 16 15 15 14 14 13 13 12 12 12 12 12 12
24 25 25 25 26 25 24 22 19 18 17 17 17 17 17 16 17 18 19 19 20 20 20 20 19 19 18 18 17 17 16 15 15 14 14 13 13 12 12 11 11 11 11 11
23 24 25 26 25 25 23 20 19 19 17 17 17 17 17 17 18 18 19 20 20 20 20 20 19 19 18 18 17 16 16 15 15 14 13 13 12 12 11 11 11 11 10 11
22 23 25 26 26 25 24 21 20 20 18 17 17 17 17 18 19 19 20 20 20 20 20 20 19 19 18 17 17 16 15 15 14 13 13 12 12 11 11 11 10 10 10 10
22 23 26 27 27 26 24 22 21 18 18 16 17 17 18 18 19 19 20 20 20 20 20 19 19 18 18 17 16 15 15 14 13 13 12 11 11 11 10 10 10 10 9 9
23 23 25 26 26 25 24 22 19 19 19 18 18 17 17 19 19 19 19 20 20 20 19 19 18 18 17 16 16 15 14 13 13 12 11 11 11 10 10 10 9 9 9 9
23 22 23 24 24 25 24 24 20 18 18 18 18 18 19 18 18 18 18 20 20 19 19 18 18 17 17 16 15 14 13 13 12 11 11 11 10 10 10 9 9 9 9 9
23 20 21 23 23 25 24 24 21 20 20 18 17 18 20 18 18 19 20 20 20 19 19 18 17 17 16 15 14 13 13 12 11 11 11 10 10 10 9 9 9 9 9 9
22 19 20 20 20 23 24 25 22 18 17 18 17 19 19 19 19 20 20 20 19 19 18 17 17 16 15 14 13 13 12 12 11 11 10 10 10 9 9 9 9 9 8 8
22 20 20 21 21 22 24 25 24 20 18 19 19 19 19 18 18 19 20 19 19 18 17 17 16 15 14 13 13 12 12 11 11 11 10 10 9 9 9 9 9 9 8 8
21 22 23 22 23 24 24 25 24 22 20 19 20 18 18 17 17 19 19 19 18 17 17 16 15 15 14 13 12 12 12 11 11 10 10 10 9 9 9 9 9 8 8 8
20 22 23 22 24 24 24 25 25 24 23 21 20 19 18 19 20 19 19 18 17 17 16 16 15 14 13 13 12 12 11 11 11 10 10 9 9 9 9 9 8 8 8 8
20 21 21 20 21 22 23 24 24 24 24 22 20 19 18 18 18 18 18 18 17 17 16 16 15 14 13 12 12 11 11 11 10 10 10 9 9 9 9 8 8 8 8 8
20 19 18 19 20 22 21 23 24 22 21 21 19 18 18 18 19 19 18 18 18 17 16 15 14 14 13 12 12 11 11 10 10 10 9 9 9 8 8 8 8 8 8 8
19 19 19 18 20 21 22 24 23 21 20 20 19 18 18 18 17 17 18 18 17 17 16 15 14 13 13 12 12 11 11 10 10 10 9 9 8 8 8 8 8 8 8 8
19 19 19 19 20 20 21 24 24 21 19 21 20 18 19 17 15 16 18 17 17 16 16 15 14 13 13 12 11 11 10 10 10 9 9 9 8 8 8 8 8 8 8 8
21 20 19 19 19 19 22 24 24 21 20 21 22 21 21 18 17 19 18 17 17 16 16 15 14 13 12 12 11 11 10 10 10 9 9 9 8 8 8 8 8 8 8 8
20 19 19 18 19 20 22 24 22 21 23 22 22 22 21 21 20 19 18 18 17 16 16 15 14 13 12 12 11 10 10 10 9 9 9 9 8 8 8 8 8 8 8 8
20 19 18 18 19 22 25 25 25 25 23 23 22 22 21 20 20 19 18 18 17 16 16 15 14 13 12 11 11 10 10 10 9 9 9 9 8 8 8 8 8 8 8 8
21 21 20 20 20 22 25 25 25 25 24 23 23 22 22 21 20 19 19 18 17 16 15 15 14 13 12 12 11 10 10 9 9 9 9 9 8 8 8 8 8 8 8 8
20 21 20 19 20 23 25 25 25 24 24 23 23 22 22 21 20 20 19 18 17 16 15 15 14 13 12 12 11 10 10 9 9 9 9 9 8 8 8 8 8 8 8 8
20 21 20 19 22 20 24 25 25 24 24 23 23 22 22 21 21 20 19 18 17 16 15 15 14 13 12 12 11 10 10 9 9 9 9 9 8 8 8 8 8 9 8 8
Wind_Speed
2 3 4 8 7 6 2 2 4 3 3 7 9 7 4 5 4 3 3 5 6 5 5 6 6 6 6 5 5 5 4 3 3 3 3 3 3 3 3 3 2 1 2 2
4 3 9 7 3 2 1 2 2 2 5 7 7 6 4 3 1 3 5 6 7 6 5 6 7 6 6 6 6 6 5 4 3 2 2 1 1 2 1 2 3 5 5 5
5 6 4 2 1 1 1 5 5 3 4 6 5 2 1 1 2 3 5 8 8 10 9 9 8 8 7 7 7 7 6 5 4 3 2 2 2 3 3 4 4 4 7 7
3 5 3 2 3 2 3 6 8 8 6 1 2 3 4 4 3 5 7 8 9 10 9 9 9 9 8 8 7 6 6 5 4 3 2 2 1 1 3 3 4 6 7 7
5 4 3 3 4 3 4 5 7 6 6 3 2 1 4 1 4 6 6 8 10 10 11 10 10 9 8 6 5 5 5 4 3 3 3 2 2 3 3 3 5 6 6 6
5 4 3 3 2 5 9 8 7 5 5 3 2 1 4 4 6 5 5 7 9 10 9 9 7 6 3 3 4 5 5 3 3 3 3 3 4 4 4 5 5 5 4 5
8 5 3 1 2 3 6 6 3 4 4 1 2 1 6 7 6 7 8 8 7 6 6 6 5 5 4 5 4 4 4 3 3 3 3 4 5 4 4 5 4 5 4 4
3 6 5 2 4 4 3 8 6 4 4 1 3 3 7 7 5 6 6 5 4 4 5 5 6 6 5 6 5 4 3 2 3 3 4 4 4 3 3 4 4 5 4 5
3 5 5 3 2 4 1 1 7 7 5 4 3 4 7 6 4 4 6 5 5 5 7 7 6 7 6 5 4 4 3 2 3 4 4 4 4 4 5 5 5 5 5 6
4 3 6 4 5 4 3 5 6 5 4 3 3 4 5 7 8 6 6 7 6 7 7 7 6 5 4 4 3 2 2 3 4 4 4 4 5 5 5 5 6 7 7 7
3 2 6 5 2 1 3 3 5 4 6 6 4 6 7 10 10 9 8 9 9 8 7 6 5 4 4 3 2 2 2 3 4 5 5 5 5 6 6 6 7 7 7 7
2 5 2 5 6 2 2 4 6 4 1 4 5 5 2 10 10 10 10 9 8 8 7 6 5 3 3 2 2 3 4 4 5 5 5 5 6 6 7 7 8 8 8 8
4 6 4 9 10 6 2 1 5 7 5 4 5 3 2 8 9 9 10 9 8 8 7 4 3 3 3 4 4 5 5 6 6 5 5 5 6 7 8 8 8 8 8 8
6 5 5 5 8 6 5 3 3 7 5 4 7 8 7 8 9 8 9 10 8 8 7 5 3 3 4 5 5 5 6 6 5 5 5 6 7 8 8 8 8 8 8 8
5 2 3 5 6 5 6 5 3 5 8 8 8 11 11 11 11 10 9 9 8 7 6 5 3 3 4 5 5 5 5 5 5 5 6 7 8 8 8 8 8 8 8 9
4 3 2 6 8 9 8 5 1 4 5 7 9 6 8 7 7 7 8 9 8 6 5 4 3 3 4 5 5 5 5 5 5 6 7 8 8 8 8 8 8 8 9 9
3 5 2 4 8 7 5 3 2 3 4 8 7 8 7 6 8 9 8 8 7 6 5 4 4 4 5 5 5 5 5 5 5 7 7 8 7 8 8 9 9 9 9 9
7 6 4 1 6 4 8 5 5 7 4 6 9 8 9 9 7 7 8 9 8 7 6 4 4 4 4 4 4 4 4 5 6 7 8 8 8 9 9 9 9 9 9 9
8 8 5 3 1 6 8 4 4 7 3 4 9 9 8 7 5 2 7 8 8 7 6 5 5 4 3 4 4 4 5 6 7 7 8 8 8 9 10 10 10 10 9 10
6 6 6 4 3 6 8 5 5 9 2 4 8 9 9 9 2 5 7 7 8 7 5 4 3 2 3 5 4 4 6 6 8 8 8 8 8 9 10 11 11 10 9 10
2 2 3 5 6 8 8 5 4 2 8 9 10 10 9 8 7 6 8 8 8 7 5 5 3 2 4 5 3 5 6 7 8 8 8 8 9 9 10 10 9 10 10 10
6 4 4 4 3 7 7 4 6 9 7 9 10 10 10 9 8 8 10 9 8 6 5 4 2 4 5 4 3 5 7 8 7 7 8 9 10 10 11 10 10 10 9 9
3 7 6 7 8 9 8 10 9 9 9 9 10 10 11 10 9 10 9 9 8 7 5 4 3 4 5 5 4 6 7 7 7 7 8 9 10 10 9 9 10 10 8 7
5 2 2 3 8 8 8 7 6 9 10 10 10 11 11 11 10 10 9 8 7 5 5 4 3 4 5 5 5 5 6 5 6 7 9 9 10 11 10 8 8 8 8 8
7 3 2 5 8 6 5 6 8 8 9 9 9 10 12 12 11 11 9 9 8 6 5 4 4 4 6 5 5 6 5 4 6 8 8 9 9 9 10 9 8 9 9 9
5 5 4 7 9 6 8 8 8 9 11 12 12 11 10 12 12 11 10 9 8 7 5 5 4 5 5 5 5 6 4 4 5 7 8 8 8 9 9 9 11 12 11 13
Wind_Direction
298 122 242 241 196 184 192 274 278 274 50 67 78 82 48 40 63 103 129 137 141 158 163 148 146 137 131 126 122 121 110 102 88 65 50 32 357 343 346 330 325 300 286 291
3 269 241 238 211 162 158 201 263 15 64 76 75 72 56 26 236 190 177 175 171 172 174 170 168 167 167 168 165 163 160 150 134 126 130 152 226 295 321 333 333 326 315 301
222 250 283 304 28 68 205 176 183 159 80 67 98 82 46 259 244 209 201 191 179 186 191 192 188 190 192 192 190 183 180 167 154 139 103 41 25 0 352 342 328 313 309 304
256 269 312 305 255 181 232 210 174 154 132 137 170 204 233 207 252 232 206 200 197 198 197 198 197 198 201 203 193 183 176 166 162 145 131 142 172 262 266 275 288 304 309 306
260 260 277 275 250 184 192 159 144 149 131 93 8 133 267 204 247 246 228 214 207 204 200 201 201 198 200 194 177 168 154 156 169 168 173 181 220 240 265 287 304 309 310 313
266 253 220 222 248 152 130 93 73 60 83 70 279 174 271 223 220 237 237 225 212 204 200 200 199 184 170 149 143 141 146 172 194 196 201 204 231 254 280 299 307 307 309 313
325 313 281 186 50 108 125 108 54 15 28 288 274 268 261 253 235 226 231 229 216 198 188 184 171 150 139 131 143 153 159 195 224 222 236 241 247 252 261 273 276 287 296 299
317 307 287 238 178 180 173 135 149 187 185 199 285 259 268 273 268 224 219 206 189 176 163 156 151 140 134 131 133 144 159 201 239 248 262 266 260 246 252 257 258 264 264 269
237 279 298 271 231 119 68 115 158 131 108 112 237 282 300 289 273 205 193 172 168 159 142 134 132 138 143 143 150 159 170 212 250 257 265 267 263 252 254 262 263 267 267 275
193 270 316 332 40 12 130 142 83 91 124 134 199 224 227 229 219 203 178 165 159 142 133 136 143 152 159 158 163 171 183 217 247 263 267 270 263 263 264 268 273 273 273 274
110 116 327 2 28 292 14 58 101 111 141 141 191 250 218 195 188 171 168 165 160 159 158 159 161 164 156 153 168 199 229 249 268 271 270 277 277 274 270 267 267 266 268 269
61 110 325 295 288 242 184 161 134 124 342 132 145 266 265 160 162 155 163 170 169 162 161 161 162 159 161 191 229 238 250 260 264 263 266 269 272 274 273 269 266 263 264 264
93 89 33 347 341 345 338 222 145 131 114 119 132 229 204 144 156 165 165 168 167 163 160 162 166 179 207 236 248 251 258 263 267 267 268 277 281 280 276 271 269 266 263 265
112 103 149 201 244 267 289 284 159 123 134 163 171 171 185 176 175 181 175 175 172 169 168 173 191 226 247 257 255 257 266 269 273 273 277 280 279 275 272 272 272 269 265 265
98 132 238 253 278 312 299 275 194 156 170 163 179 173 195 193 187 187 183 174 161 164 170 175 193 230 256 268 270 269 272 278 279 284 285 280 279 280 279 278 277 275 271 271
107 141 8 328 320 329 323 307 198 152 144 134 134 176 204 187 170 174 174 161 160 170 172 172 193 239 268 274 270 272 278 281 283 288 286 285 289 291 287 284 283 283 278 273
147 131 99 298 315 352 320 279 135 125 135 147 165 186 172 163 177 181 172 164 169 173 176 194 226 250 265 266 258 265 270 281 292 293 292 294 296 295 290 292 293 287 283 277
155 133 134 240 8 323 261 271 117 97 61 123 131 151 164 171 172 177 177 171 174 177 188 215 238 255 262 260 265 265 281 294 298 299 298 297 297 297 295 293 289 286 281 280
157 143 138 137 220 278 297 300 144 119 69 137 136 149 155 146 115 243 209 180 180 187 196 214 225 230 250 269 270 281 297 301 302 299 299 298 299 300 300 297 292 288 286 285
111 118 135 160 190 240 251 254 134 100 131 212 155 157 160 149 141 249 213 181 181 186 194 206 218 229 266 273 274 290 296 299 295 291 292 296 298 298 298 294 291 288 285 284
95 82 164 199 220 255 240 223 106 123 228 204 175 169 163 172 196 206 179 181 185 187 191 184 188 239 263 270 276 288 292 288 281 284 293 299 299 298 295 292 291 292 293 291
185 181 214 179 200 258 241 188 178 211 196 180 175 172 170 182 183 167 170 181 182 180 181 178 201 260 272 272 269 285 287 280 285 292 299 301 301 304 310 302 300 297 294 292
181 189 188 187 214 233 224 209 208 173 172 182 177 178 166 163 168 170 178 182 185 183 192 201 216 265 284 277 261 275 281 286 296 303 303 303 305 305 303 300 301 303 299 292
294 217 162 266 269 258 247 232 201 181 181 181 173 171 165 166 172 172 176 183 187 194 200 208 225 270 284 282 275 264 277 287 299 303 304 304 307 309 309 305 298 298 298 294
258 308 341 299 292 312 291 230 201 186 173 171 171 174 172 166 170 174 180 187 192 197 205 202 216 249 266 275 278 277 278 291 302 303 303 306 305 305 308 306 299 295 286 277
245 222 211 244 248 223 245 238 197 176 180 179 176 179 178 171 174 173 181 187 187 192 195 201 219 238 258 268 274 278 274 283 299 304 307 307 309 309 307 308 310 302 292 288
Height
1505 1512 1517 1512 1511 1513 1514 1517 1520 1515 1511 1516 1524 1528 1529 1529 1529 1530 1530 1530 1531 1533 1533 1533 1533 1532 1532 1532 1532 1531 1531 1530 1530 1529 1528 1527 1526 1524 1523 1521 1520 1518 1517 1515
1510 1513 1505 1502 1504 1507 1510 1517 1517 1515 1513 1518 1528 1530 1529 1529 1530 1530 1530 1531 1531 1532 1533 1533 1533 1532 1532 1531 1531 1530 1529 1529 1528 1527 1525 1524 1523 1521 1520 1518 1517 1515 1513 1511
1511 1506 1498 1500 1503 1506 1510 1515 1517 1518 1518 1521 1529 1538 1535 1530 1529 1529 1529 1530 1530 1530 1531 1531 1531 1531 1530 1530 1529 1528 1527 1526 1525 1524 1523 1522 1520 1518 1516 1514 1512 1511 1509 1507
1504 1498 1497 1499 1501 1503 1514 1505 1508 1514 1527 1538 1534 1547 1537 1531 1530 1528 1527 1528 1528 1528 1529 1529 1529 1528 1528 1527 1527 1526 1525 1524 1523 1522 1520 1518 1516 1513 1511 1509 1507 1505 1504 1502
1503 1496 1496 1498 1496 1497 1505 1501 1507 1514 1528 1539 1538 1543 1538 1531 1530 1526 1524 1525 1525 1526 1526 1526 1526 1526 1526 1526 1525 1524 1523 1522 1521 1519 1517 1515 1512 1510 1507 1505 1502 1500 1499 1497
1497 1492 1492 1492 1489 1492 1499 1508 1517 1524 1533 1547 1541 1542 1539 1531 1526 1522 1521 1522 1523 1524 1524 1524 1525 1525 1525 1524 1523 1522 1521 1520 1518 1516 1514 1511 1509 1506 1503 1501 1498 1496 1494 1493
1504 1494 1489 1488 1493 1495 1499 1518 1537 1541 1550 1551 1540 1539 1535 1520 1517 1518 1518 1520 1521 1521 1521 1522 1523 1523 1523 1522 1522 1520 1519 1517 1515 1513 1510 1508 1505 1502 1499 1497 1494 1492 1490 1488
1517 1512 1492 1487 1490 1496 1498 1509 1532 1542 1549 1551 1542 1541 1529 1515 1514 1514 1516 1518 1519 1519 1520 1521 1521 1521 1521 1520 1519 1517 1515 1514 1511 1509 1507 1504 1501 1498 1496 1493 1491 1488 1485 1483
1516 1511 1488 1483 1482 1486 1496 1504 1506 1526 1538 1552 1547 1537 1524 1514 1513 1513 1515 1516 1517 1518 1518 1519 1519 1519 1519 1517 1516 1514 1512 1510 1508 1505 1502 1500 1497 1494 1492 1489 1486 1483 1481 1479
1504 1509 1495 1486 1484 1485 1489 1496 1510 1525 1541 1549 1545 1540 1534 1519 1516 1514 1514 1515 1517 1517 1518 1518 1518 1517 1516 1514 1513 1511 1509 1506 1504 1501 1498 1495 1493 1490 1487 1484 1482 1479 1476 1474
1498 1509 1504 1495 1496 1495 1493 1496 1507 1520 1526 1542 1549 1539 1512 1512 1511 1512 1513 1514 1515 1516 1516 1516 1515 1514 1513 1511 1510 1507 1505 1502 1499 1497 1494 1491 1488 1485 1482 1480 1477 1474 1472 1469
1496 1509 1514 1502 1491 1487 1489 1493 1504 1521 1524 1529 1539 1536 1505 1506 1508 1509 1511 1512 1513 1513 1514 1513 1513 1511 1510 1508 1506 1503 1501 1498 1495 1492 1489 1486 1483 1480 1477 1474 1472 1469 1467 1464
1496 1511 1525 1521 1511 1495 1491 1489 1494 1508 1520 1527 1537 1530 1508 1506 1507 1508 1509 1510 1511 1511 1511 1511 1510 1508 1506 1504 1502 1499 1497 1494 1491 1488 1485 1482 1479 1475 1472 1469 1466 1464 1461 1458
1492 1508 1521 1527 1518 1503 1496 1489 1489 1502 1519 1519 1519 1518 1511 1508 1507 1507 1507 1508 1508 1509 1508 1508 1506 1505 1503 1501 1498 1495 1493 1490 1487 1484 1480 1477 1473 1470 1466 1463 1460 1458 1455 1452
1493 1505 1501 1501 1495 1491 1490 1487 1487 1493 1500 1510 1509 1510 1507 1504 1503 1504 1505 1506 1506 1506 1506 1504 1503 1501 1499 1497 1494 1491 1489 1486 1482 1479 1475 1472 1468 1465 1461 1458 1455 1452 1449 1446
1494 1500 1500 1502 1492 1490 1489 1485 1483 1486 1489 1496 1502 1505 1499 1500 1501 1502 1503 1503 1503 1503 1502 1501 1500 1498 1495 1493 1490 1487 1484 1481 1478 1474 1471 1467 1463 1459 1456 1452 1449 1446 1442 1439
1495 1500 1507 1512 1500 1496 1500 1486 1483 1485 1484 1490 1499 1499 1497 1500 1500 1500 1500 1500 1500 1500 1499 1498 1496 1494 1491 1489 1486 1483 1480 1477 1473 1470 1466 1462 1458 1454 1451 1447 1443 1440 1436 1433
1493 1500 1509 1512 1511 1514 1500 1479 1478 1484 1486 1484 1488 1492 1493 1495 1497 1497 1497 1497 1496 1496 1495 1494 1492 1490 1488 1485 1482 1479 1476 1473 1469 1465 1461 1457 1453 1449 1445 1441 1437 1434 1430 1426
1482 1494 1506 1515 1516 1510 1492 1480 1479 1486 1493 1488 1488 1491 1493 1494 1496 1496 1495 1494 1493 1493 1492 1490 1489 1486 1484 1481 1478 1475 1472 1469 1465 1461 1457 1453 1448 1444 1439 1435 1432 1428 1424 1420
1480 1486 1501 1509 1513 1516 1496 1478 1475 1483 1496 1487 1486 1487 1489 1492 1497 1494 1491 1490 1490 1489 1488 1487 1485 1483 1481 1478 1475 1471 1468 1464 1460 1457 1452 1448 1444 1439 1434 1430 1426 1422 1418 1414
1491 1494 1500 1506 1510 1500 1481 1474 1475 1494 1492 1481 1481 1482 1483 1485 1487 1486 1486 1487 1487 1486 1485 1483 1482 1480 1477 1474 1471 1468 1464 1460 1457 1453 1448 1444 1439 1434 1429 1425 1421 1417 1413 1409
1493 1498 1500 1504 1509 1501 1472 1472 1477 1478 1472 1474 1476 1477 1478 1480 1481 1482 1483 1483 1483 1483 1482 1480 1478 1476 1473 1471 1467 1464 1460 1457 1453 1448 1444 1439 1435 1430 1425 1420 1416 1412 1408 1404
1485 1486 1488 1491 1489 1471 1466 1466 1465 1466 1468 1469 1471 1473 1474 1476 1477 1478 1479 1480 1480 1479 1478 1477 1475 1472 1470 1467 1464 1460 1457 1453 1449 1444 1440 1435 1430 1426 1421 1416 1412 1407 1403 1399
1478 1474 1476 1477 1471 1464 1463 1462 1462 1462 1462 1464 1466 1468 1470 1471 1473 1474 1475 1476 1476 1475 1474 1473 1471 1469 1466 1463 1460 1457 1453 1449 1445 1440 1436 1431 1426 1422 1417 1413 1408 1404 1399 1395
1476 1473 1475 1475 1467 1462 1460 1459 1458 1459 1460 1461 1463 1464 1465 1466 1468 1469 1470 1471 1471 1471 1470 1469 1467 1465 1462 1460 1457 1453 1449 1445 1441 1437 1432 1428 1423 1418 1414 1409 1405 1400 1396 1392
1470 1470 1472 1472 1462 1461 1457 1456 1455 1455 1456 1457 1458 1459 1460 1461 1462 1464 1465 1465 1466 1466 1465 1464 1463 1461 1458 1456 1453 1449 1446 1442 1438 1433 1429 1424 1420 1415 1411 1406 1401 1397 1393 1388